Regional Weather Roundup
Issued by NWS

Home | Current Version | Previous Version | Text Only | Print | Product List | Glossary On
Versions: 1 2 3 4 5 6 7 8 9 10 11 12 13 14 15 16 17 18 19 20 21 22 23 24 25 26 27 28 29 30 31 32 33 34 35 36 37 38 39 40 41 42 43 44 45 46 47 48 49 50
000
ASUS44 KOUN 120410
RWROK

WEATHER ROUNDUP FOR OKLAHOMA
NATIONAL WEATHER SERVICE NORMAN OK
1000 PM CST THU FEB 11 2016

NOTE: "FAIR" INDICATES FEW OR NO CLOUDS BELOW 12,000 FEET WITH NO
      SIGNIFICANT WEATHER AND/OR OBSTRUCTIONS TO VISIBILITY.

OKZ001>007-009>012-014-015-017-120500-
NORTHWEST OKLAHOMA AND THE PANHANDLE

CITY           SKY/WX    TMP DP  RH WIND       PRES   REMARKS
GAGE           CLEAR     44  32  62 CALM      30.15R
GUYMON         CLOUDY    49  23  36 NW9       30.17R
ENID/WOODRING  CLEAR     34  32  93 CALM      30.16S
$$

OKZ016-021>023-033>039-044-045-120500-
SOUTHWEST OKLAHOMA

CITY           SKY/WX    TMP DP  RH WIND       PRES   REMARKS
LAWTON/REGL    CLEAR     40  32  73 N5        30.17R
LAWTON/FT SILL CLEAR     42  34  73 N10       30.16R
FREDERICK      CLEAR     45  35  68 NE9       30.14R
CLINTON        CLOUDY    41  32  70 SE8       30.18F
HOBART         CLEAR     42  33  70 E8        30.19R
ALTUS AFB      CLOUDY    42  32  68 N9        30.17R
$$

OKZ018>020-024>031-120500-
CENTRAL OKLAHOMA

CITY           SKY/WX    TMP DP  RH WIND       PRES   REMARKS
OKLAHOMA CITY  CLEAR     45  32  60 NW6       30.17R
OKC/WILEY POST CLEAR     38  31  76 S3        30.17S
OKC/TINKER AFB CLEAR     47  29  51 NW2       30.16R
STILLWATER     CLEAR     36  29  75 NE3       30.17R
GUTHRIE        CLEAR     37  29  72 CALM      30.17S
$$

OKZ008-013-054>072-120500-
NORTHEAST OKLAHOMA

CITY           SKY/WX    TMP DP  RH WIND       PRES   REMARKS
TULSA          PTCLDY    40  27  59 CALM      30.16S
TULSA/JONES    CLEAR     38  28  67 CALM      30.17F
PONCA CITY     CLEAR     32  25  75 NE5       30.20R WCI  27
BARTLESVILLE   CLEAR     28  23  81 CALM      30.22R
MUSKOGEE       PTCLDY    41  28  60 N6        30.18S
$$

OKZ032-040>043-046>053-073>077-120500-
SOUTH CENTRAL/SOUTHEAST OKLAHOMA

CITY           SKY/WX    TMP DP  RH WIND       PRES   REMARKS
ARDMORE/DWNTWN CLOUDY    50  30  46 NE3       30.15S
MCALESTER      MOCLDY    48  30  49 NE5       30.17R
$$




USA.gov is the U.S. government's official web portal to all federal, state and local government web resources and services.